Location: *
(48.8667°N, 2.3331°E)
Time: 17:20:41
(UTC+00:00)

CARTOSAT-1 - Pass Details

Date: 09 April 2020
Orbit: 616 x 619 km, 97.8° (Epoch: 25 May)

Event Time Altitude Azimuth Distance (km) Brightness Sun altitude
Exits shadow 20:39:29 32° 80° (E) 1,065 4.4 -19.3°
Maximum altitude 20:39:56 33° 67° (ENE) 1,047 4.5 -19.3°
Drops below altitude 10° 20:43:50 10° 3° (N) 1,998 6.6 -19.8°
Sets 20:46:10 0° 354° (N) 2,909 7.7 -20.1°
